Flag for Brazil Weather past 2 weeks in Pirassununga, São Paulo, Brazil

Now
75 °F

Clear.


Feels Like: 77 °F
Forecast: 63 / 82 °F
Wind: 7 mph from South

Location: Leite Lopes / Ribeir

Current Time: Oct 21, 2014 at 1:59:27 AM

Latest Report: Oct 21, 2014 at 1:00 AM


Visibility: 10 mi

Pressure: 29.98 "Hg

Humidity: 61%

Dew point: 61 °F

Location of PirassunungaLocation

Historic Weather in Pirassununga — Graph

°F

Pirassununga temperature yesterday

Maximum temperature yesterday: 88 °F (at 1:00 PM)
Minimum temperature yesterday: 72 °F (at 3:00 AM)
Average temperature yesterday: 79 °F

Past Weeks' High & Low Weather Summary

 TemperatureHumidityPressure
High104 °F (Oct 14, 4:00 PM)69% (Oct 19, 11:00 PM)30.18 "Hg (Oct 19, 11:00 PM)
Low57 °F (Oct 8, 6:00 AM)11% (Oct 15, 3:00 PM)29.77 "Hg (Oct 18, 4:00 PM)
Average83 °F32%29.97 "Hg
* Reported Midnight between Oct 5 and Oct 6 — Oct 21 1:00 AM, Pirassununga, Weather by CustomWeather, © 2014

Note: Actual official high and low records may vary slightly from our data, if they occured in-between our weather recording intervals... More about our weather records

Advertising

Pirassununga weather history for previous 24 hours

 ConditionsComfort  
Time TempWeatherWind HumidityBarometerVisibility
1:00 AM
Oct 21
75 °FClear.7 mph61%29.98 "Hg10 mi
12:00 AM77 °FClear.8 mph61%29.98 "Hg10 mi
8:00 PM
Oct 20
79 °FClear.17 mph58%29.95 "Hg10 mi
6:00 PM86 °FPassing clouds.9 mph38%29.92 "HgN/A
5:00 PM88 °FPartly sunny.10 mph38%29.92 "HgN/A
4:00 PM86 °FPartly sunny.8 mph40%29.92 "HgN/A
3:00 PM86 °FPartly sunny.12 mph43%29.95 "HgN/A
2:00 PM86 °FBroken clouds.10 mph43%29.98 "HgN/A
1:00 PM88 °FSunny.5 mph38%30.01 "Hg10 mi
12:00 PM82 °FSunny.7 mph45%30.04 "Hg10 mi
11:00 AM81 °FSunny.7 mph48%30.04 "Hg10 mi
10:00 AM77 °FSunny.8 mph54%30.04 "Hg10 mi
9:00 AM73 °FSunny.9 mph65%30.04 "Hg10 mi
8:00 AM75 °FSunny.No wind61%29.98 "Hg10 mi
7:00 AM73 °FSunny.No wind65%29.95 "Hg10 mi
6:00 AM72 °FClear.5 mph69%29.92 "Hg10 mi
5:00 AM72 °FClear.9 mph69%29.92 "Hg10 mi
4:00 AM72 °FClear.12 mph69%29.92 "Hg10 mi
3:00 AM72 °FClear.14 mph69%29.95 "Hg10 mi
1:00 AM73 °FClear.14 mph65%29.98 "Hg10 mi
Weather by CustomWeather, © 2014

See weather overviewHow to use our weather pages